When you browse on this site, cookies collect data to enhance your experience and personalize the content and advertising you see.
Visit our Privacy Policy to learn more. By continuing to use the site, you agree to this use of cookies and data.
  • In Österreich
  • Länderverzeichnis
  • Für 7 Tage
  • Wassertemperatur
  • Satellitenkarten
  • Wetterkarte
  • News
  • Widgets
  • user-avatar
    Anmelden

    Stündliche Wetter Orange Walk

    Heute, 20 April, Samstag

    Zeit Temperatur Niederschläge Wind Luftdruck Luftfeuchtigkeit
    00:00 +24°C° 0.1 mm 2 m/S 761 mmHg 92%
    01:00 +23°C° 0 mm 2 m/S 761 mmHg 91%
    02:00 +21°C° 0 mm 2 m/S 761 mmHg 91%
    03:00 +21°C° 0 mm 1 m/S 761 mmHg 91%
    04:00 +21°C° 0 mm 1 m/S 761 mmHg 91%
    05:00 +20°C° 0 mm 1 m/S 761 mmHg 91%
    06:00 +20°C° 0 mm 1 m/S 762 mmHg 91%
    07:00 +22°C° 0 mm 1 m/S 762 mmHg 79%
    08:00 +25°C° 0 mm 2 m/S 762 mmHg 67%
    09:00 +27°C° 0 mm 2 m/S 763 mmHg 55%
    10:00 +29°C° 0 mm 2 m/S 762 mmHg 47%
    11:00 +30°C° 0 mm 2 m/S 762 mmHg 40%
    12:00 +32°C° 0 mm 2 m/S 762 mmHg 33%
    13:00 +34°C° 0 mm 2 m/S 761 mmHg 31%
    14:00 +33°C° 0 mm 1 m/S 760 mmHg 29%
    15:00 +34°C° 0 mm 1 m/S 759 mmHg 27%
    16:00 +32°C° 0 mm 1 m/S 759 mmHg 34%
    17:00 +30°C° 0 mm 1 m/S 759 mmHg 41%
    18:00 +28°C° 0 mm 2 m/S 759 mmHg 49%
    19:00 +26°C° 0 mm 1 m/S 760 mmHg 58%
    20:00 +25°C° 0 mm 1 m/S 760 mmHg 67%
    21:00 +24°C° 0 mm 1 m/S 761 mmHg 76%
    22:00 +23°C° 0 mm 1 m/S 761 mmHg 79%
    23:00 +23°C° 0 mm 1 m/S 761 mmHg 82%

    Morgen, 21 April, Sonntag

    Zeit Temperatur Niederschläge Wind Luftdruck Luftfeuchtigkeit
    00:00 +23°C° 0 mm 1 m/S 761 mmHg 84%
    01:00 +23°C° 0 mm 1 m/S 761 mmHg 85%
    02:00 +23°C° 0 mm 1 m/S 761 mmHg 87%
    03:00 +23°C° 0 mm 1 m/S 760 mmHg 88%
    04:00 +23°C° 0 mm 1 m/S 761 mmHg 89%
    05:00 +22°C° 0 mm 1 m/S 761 mmHg 91%
    06:00 +22°C° 0 mm 1 m/S 761 mmHg 92%
    07:00 +24°C° 0 mm 1 m/S 761 mmHg 82%
    08:00 +26°C° 0 mm 1 m/S 762 mmHg 72%
    09:00 +29°C° 0 mm 2 m/S 762 mmHg 61%
    10:00 +30°C° 0 mm 2 m/S 762 mmHg 58%
    11:00 +31°C° 0 mm 2 m/S 762 mmHg 54%
    12:00 +32°C° 0 mm 2 m/S 761 mmHg 51%
    13:00 +33°C° 0 mm 3 m/S 761 mmHg 49%
    14:00 +33°C° 0 mm 3 m/S 760 mmHg 48%
    15:00 +33°C° 0 mm 3 m/S 759 mmHg 46%
    16:00 +31°C° 0 mm 3 m/S 759 mmHg 53%
    17:00 +29°C° 0 mm 3 m/S 759 mmHg 59%
    18:00 +27°C° 0 mm 2 m/S 759 mmHg 66%
    19:00 +26°C° 0 mm 2 m/S 760 mmHg 71%
    20:00 +25°C° 0 mm 1 m/S 760 mmHg 76%
    21:00 +24°C° 0 mm 1 m/S 761 mmHg 81%
    22:00 +23°C° 0 mm 1 m/S 761 mmHg 83%
    23:00 +23°C° 0 mm 1 m/S 761 mmHg 85%

    übermorgen, 22 April, Montag

    Zeit Temperatur Niederschläge Wind Luftdruck Luftfeuchtigkeit
    00:00 +23°C° 0 mm 1 m/S 761 mmHg 88%
    01:00 +23°C° 0 mm 1 m/S 760 mmHg 89%
    02:00 +20°C° 0 mm 0 m/S 760 mmHg 90%
    03:00 +20°C° 0 mm 0 m/S 759 mmHg 91%
    04:00 +20°C° 0 mm 0 m/S 759 mmHg 91%
    05:00 +22°C° 0 mm 1 m/S 759 mmHg 90%
    06:00 +23°C° 0 mm 1 m/S 759 mmHg 90%
    07:00 +25°C° 0 mm 1 m/S 760 mmHg 82%
    08:00 +27°C° 0 mm 2 m/S 760 mmHg 74%
    09:00 +29°C° 0 mm 2 m/S 761 mmHg 67%
    10:00 +30°C° 0.3 mm 3 m/S 760 mmHg 66%
    11:00 +31°C° 0.3 mm 3 m/S 760 mmHg 65%
    12:00 +31°C° 0.3 mm 3 m/S 760 mmHg 64%
    13:00 +31°C° 0.3 mm 3 m/S 759 mmHg 63%
    14:00 +32°C° 0.3 mm 4 m/S 758 mmHg 63%
    15:00 +32°C° 0.3 mm 4 m/S 757 mmHg 62%
    16:00 +30°C° 0 mm 3 m/S 758 mmHg 66%
    17:00 +29°C° 0 mm 3 m/S 758 mmHg 71%
    18:00 +28°C° 0 mm 2 m/S 758 mmHg 75%
    19:00 +27°C° 0 mm 2 m/S 758 mmHg 80%
    20:00 +26°C° 0 mm 1 m/S 759 mmHg 84%
    21:00 +26°C° 0 mm 1 m/S 759 mmHg 88%
    22:00 +25°C° 0 mm 1 m/S 759 mmHg 90%
    23:00 +25°C° 0 mm 1 m/S 759 mmHg 92%

    23 April, Dienstag

    Zeit Temperatur Niederschläge Wind Luftdruck Luftfeuchtigkeit
    00:00 +25°C° 0 mm 1 m/S 759 mmHg 94%
    01:00 +25°C° 0 mm 1 m/S 758 mmHg 94%
    02:00 +25°C° 0 mm 1 m/S 758 mmHg 95%
    03:00 +25°C° 0 mm 1 m/S 757 mmHg 95%
    04:00 +25°C° 0.1 mm 1 m/S 758 mmHg 95%
    05:00 +25°C° 0.1 mm 1 m/S 758 mmHg 95%
    06:00 +25°C° 0.1 mm 1 m/S 758 mmHg 94%
    07:00 +27°C° 0.2 mm 2 m/S 758 mmHg 85%
    08:00 +29°C° 0.2 mm 2 m/S 759 mmHg 77%
    09:00 +31°C° 0.2 mm 3 m/S 759 mmHg 68%
    10:00 +33°C° 0.1 mm 3 m/S 759 mmHg 62%
    11:00 +34°C° 0.1 mm 4 m/S 758 mmHg 56%
    12:00 +35°C° 0.1 mm 4 m/S 758 mmHg 50%
    13:00 +35°C° 0 mm 4 m/S 757 mmHg 51%
    14:00 +34°C° 0 mm 4 m/S 757 mmHg 52%
    15:00 +34°C° 0 mm 4 m/S 756 mmHg 53%
    16:00 +33°C° 0 mm 3 m/S 756 mmHg 60%
    17:00 +30°C° 0 mm 3 m/S 757 mmHg 66%
    18:00 +29°C° 0 mm 2 m/S 757 mmHg 73%
    19:00 +28°C° 0 mm 2 m/S 757 mmHg 77%
    20:00 +27°C° 0 mm 2 m/S 758 mmHg 81%
    21:00 +26°C° 0 mm 1 m/S 758 mmHg 85%
    22:00 +26°C° 0 mm 1 m/S 758 mmHg 86%
    23:00 +25°C° 0 mm 1 m/S 758 mmHg 88%

    24 April, Mittwoch

    Zeit Temperatur Niederschläge Wind Luftdruck Luftfeuchtigkeit
    00:00 +25°C° 0 mm 1 m/S 757 mmHg 90%
    01:00 +25°C° 0 mm 1 m/S 757 mmHg 91%
    02:00 +25°C° 0 mm 1 m/S 757 mmHg 92%
    03:00 +25°C° 0 mm 1 m/S 756 mmHg 93%
    04:00 +25°C° 0 mm 1 m/S 757 mmHg 93%
    05:00 +25°C° 0 mm 1 m/S 757 mmHg 93%
    06:00 +25°C° 0 mm 1 m/S 757 mmHg 93%
    07:00 +27°C° 0 mm 2 m/S 757 mmHg 82%
    08:00 +29°C° 0 mm 3 m/S 758 mmHg 71%
    09:00 +33°C° 0 mm 3 m/S 758 mmHg 61%
    10:00 +33°C° 0 mm 3 m/S 758 mmHg 57%
    11:00 +34°C° 0 mm 3 m/S 757 mmHg 53%
    12:00 +35°C° 0 mm 3 m/S 757 mmHg 50%
    13:00 +35°C° 0 mm 4 m/S 756 mmHg 51%
    14:00 +35°C° 0 mm 4 m/S 755 mmHg 51%
    15:00 +35°C° 0 mm 4 m/S 755 mmHg 52%
    16:00 +33°C° 0 mm 4 m/S 755 mmHg 60%
    17:00 +31°C° 0 mm 3 m/S 755 mmHg 67%
    18:00 +29°C° 0 mm 2 m/S 755 mmHg 75%
    19:00 +28°C° 0 mm 2 m/S 756 mmHg 80%
    20:00 +27°C° 0 mm 1 m/S 756 mmHg 86%
    21:00 +26°C° 0 mm 1 m/S 756 mmHg 91%
    22:00 +26°C° 0 mm 1 m/S 756 mmHg 92%
    23:00 +26°C° 0 mm 1 m/S 756 mmHg 92%

    25 April, Donnerstag

    Zeit Temperatur Niederschläge Wind Luftdruck Luftfeuchtigkeit
    00:00 +26°C° 0 mm 1 m/S 756 mmHg 93%
    01:00 +26°C° 0 mm 1 m/S 756 mmHg 93%
    02:00 +26°C° 0 mm 1 m/S 755 mmHg 93%
    03:00 +25°C° 0 mm 1 m/S 755 mmHg 93%
    04:00 +25°C° 0 mm 1 m/S 755 mmHg 93%
    05:00 +26°C° 0 mm 1 m/S 756 mmHg 93%
    06:00 +26°C° 0 mm 1 m/S 756 mmHg 93%
    07:00 +28°C° 0 mm 2 m/S 757 mmHg 83%
    08:00 +30°C° 0 mm 3 m/S 757 mmHg 73%
    09:00 +33°C° 0 mm 4 m/S 757 mmHg 63%
    10:00 +34°C° 0.1 mm 4 m/S 757 mmHg 62%
    11:00 +34°C° 0.1 mm 4 m/S 756 mmHg 60%
    12:00 +35°C° 0.1 mm 4 m/S 756 mmHg 58%
    13:00 +35°C° 0 mm 3 m/S 756 mmHg 58%
    14:00 +35°C° 0 mm 3 m/S 755 mmHg 57%
    15:00 +35°C° 0 mm 3 m/S 754 mmHg 56%
    16:00 +34°C° 0 mm 3 m/S 755 mmHg 62%
    17:00 +31°C° 0 mm 3 m/S 755 mmHg 68%
    18:00 +30°C° 0 mm 2 m/S 755 mmHg 73%
    19:00 +29°C° 0 mm 2 m/S 756 mmHg 78%
    20:00 +28°C° 0 mm 2 m/S 756 mmHg 83%
    21:00 +27°C° 0 mm 2 m/S 757 mmHg 87%
    22:00 +27°C° 0 mm 2 m/S 757 mmHg 89%
    23:00 +27°C° 0 mm 1 m/S 757 mmHg 91%
    Mehr zeigen